[[{"header":{"parameterUnit":"m.s-1","parameterCategory":1,"la1":30.2991,"la2":30.254,"lo1":-89.0895,"lo2":-89.0444,"dy":0.0017,"dx":0.0017,"nx":28,"ny":28,"refTime":"2023-09-25T09:00:00:Z","depth":0,"parameterNumber":2,"parameterNumberName":"U-component_of_WINDS"},"data":[0,0,0,0,0,0,0,0,0,0,0,0,0,0,0,0,0,0,0,0,0,0,0,0,0,0,0,0,0,0,0,0,0,0,0,0,0,0,0,0,0,0,0,0,0,0,0,0,0,0,0,0,0,0,0,0,0,0,-1.0362,-1.0362,0,-1.0402,-1.0402,-1.0402,-1.0376,-1.0375,-1.0374,-1.0373,-1.0416,-1.0419,-1.0421,0,0,0,0,0,0,0,0,0,0,0,0,0,-1.0265,-1.0267,-1.0361,-1.0362,-1.0362,-1.0402,-1.0402,-1.0403,-1.0376,-1.0375,-1.0373,-1.0372,-1.0416,-1.0418,-1.0421,0,0,0,0,0,0,0,0,0,0,0,0,0,-1.0306,-1.0267,-1.0361,-1.0354,-1.0354,-1.0401,-1.0402,-1.0403,-1.0377,-1.0375,-1.0373,-1.0371,-1.0415,-1.0418,-1.0421,-1.0479,0,0,-1.0432,-1.0433,0,0,0,0,0,0,0,0,-1.0304,-1.031,-1.0355,-1.0355,-1.0354,-1.0382,-1.0384,-1.0429,-1.0377,-1.0368,-1.0373,-1.037,-1.0407,-1.0411,-1.0422,-1.0481,-1.0483,-1.0432,-1.0434,-1.0436,-1.0437,0,0,0,0,0,0,0,-1.0301,-1.0308,-1.0377,-1.0355,-1.0355,-1.035,-1.0353,-1.0392,-1.0397,-1.0369,-1.0367,-1.0372,-1.0406,-1.0419,-1.0423,-1.0484,-1.0432,-1.0435,-1.0437,-1.0439,-1.0594,-1.0596,0,0,0,0,0,0,-1.0298,-1.0306,-1.0376,-1.0379,-1.0324,-1.0353,-1.0357,-1.0375,-1.0397,-1.0398,-1.0373,-1.037,-1.0414,-1.0419,-1.0424,-1.0494,-1.0436,-1.0439,-1.0441,-1.0592,-1.0594,-1.0596,0,0,0,0,0,0,-1.0296,-1.0305,-1.0375,-1.0342,-1.035,-1.0356,-1.0377,-1.0377,-1.0389,-1.04,-1.0401,-1.0385,-1.0413,-1.042,-1.0466,-1.0496,-1.0441,-1.0444,-1.0589,-1.0592,-1.0595,-1.0634,0,0,0,0,0,0,-1.0294,-1.0304,-1.0326,-1.0342,-1.0352,-1.0415,-1.0379,-1.0379,-1.0395,-1.0392,-1.0412,-1.0413,-1.0412,-1.0461,-1.0469,-1.0499,-1.0446,-1.0587,-1.0591,-1.0594,-1.0631,-1.0638,-1.0645,0,0,0,0,0,-1.029,-1.0336,-1.0327,-1.0336,-1.0379,-1.0416,-1.0422,-1.0419,-1.0398,-1.042,-1.0427,-1.0413,-1.0491,-1.0466,-1.0475,-1.0507,-1.0585,-1.0589,-1.0594,-1.0627,-1.0637,-1.0645,0,0,0,0,0,0,-1.0324,-1.0338,-1.0328,-1.038,-1.0397,-1.0412,-1.044,-1.0429,-1.0453,-1.0449,-1.0444,-1.0449,-1.0498,-1.0507,-1.0479,-1.0564,-1.0535,-1.0541,-1.0557,-1.0566,-1.0573,-1.0571,-1.0449,0,0,0,0,0,-1.0337,-1.0365,-1.0376,-1.0421,-1.043,-1.0433,-1.045,-1.0446,-1.0463,-1.0471,-1.0481,-1.05,-1.0528,-1.0547,-1.0574,-1.0631,-1.0636,-1.0658,-1.0665,-1.0671,-1.0677,-1.0709,-1.0719,-1.0611,-1.0611,-1.0611,0,0,-1.0365,-1.0376,-1.0395,-1.0428,-1.0441,-1.0471,-1.044,-1.0473,-1.0496,-1.0476,-1.052,-1.0529,-1.0549,-1.0601,-1.0625,-1.061,-1.0708,-1.0677,-1.0681,-1.0684,-1.0715,-1.0725,-1.0734,-1.0614,-1.0614,-1.0613,0,0,-1.0432,-1.0442,-1.0481,-1.0494,-1.0514,-1.0515,-1.0525,-1.0541,-1.0546,-1.059,-1.0575,-1.0603,-1.0652,-1.0668,-1.0682,-1.0754,-1.0743,-1.0763,-1.0802,-1.0833,-1.0842,-1.0849,-1.0876,-1.0886,-1.0769,-1.0769,-1.0769,0,-1.0465,-1.0509,-1.0503,-1.0537,-1.0553,-1.0535,-1.0575,-1.0588,-1.0616,-1.0628,-1.061,-1.0672,-1.0685,-1.0741,-1.0758,-1.077,-1.0782,-1.0762,-1.0841,-1.0848,-1.0855,-1.0881,-1.0891,-1.0772,-1.0771,-1.0771,-1.0771,0,-1.0549,-1.058,-1.0609,-1.0635,-1.0654,-1.0691,-1.0691,-1.0711,-1.0705,-1.0709,-1.0755,-1.0769,-1.0799,-1.0812,-1.0807,-1.0867,-1.0858,-1.0841,-1.0811,-1.0868,-1.0892,-1.0902,-1.0775,-1.0774,-1.0774,-1.0773,0,0,-1.0639,-1.066,-1.0671,-1.0683,-1.0703,-1.0727,-1.0764,-1.0792,-1.081,-1.0829,-1.0861,-1.0903,-1.0887,-1.0903,-1.09,-1.0927,-1.0984,-1.0906,-1.0907,-1.0921,-1.1053,-1.1067,-1.1078,-1.0976,-1.0978,-1.0979,-1.1052,0,-1.0707,-1.077,-1.0766,-1.0825,-1.0855,-1.0838,-1.087,-1.0886,-1.089,-1.0917,-1.0922,-1.0952,-1.0929,-1.0939,-1.0964,-1.0972,-1.1011,-1.0966,-1.1007,-1.1008,-1.1003,-1.109,-1.1105,-1.1172,-1.1061,-1.1063,-1.1064,0,-1.0796,-1.0818,-1.088,-1.0895,-1.0908,-1.0936,-1.0962,-1.0987,-1.1005,-1.1007,-1.1025,-1.1017,-1.1055,-1.1023,-1.1076,-1.1046,-1.1062,-1.1068,-1.1071,-1.1075,-1.104,-1.1099,-1.1194,-1.1204,-1.1078,-1.1077,-1.1076,0,-1.0857,-1.0902,-1.0945,-1.0955,-1.0974,-1.0995,-1.1004,-1.102,-1.1037,-1.106,-1.1071,-1.1099,-1.1114,-1.1136,-1.1136,-1.1112,-1.119,-1.1158,-1.1193,-1.1193,-1.1211,-1.121,-1.1312,-1.122,-1.1219,-1.1219,-1.1219,0,-1.0935,-1.0974,-1.0972,-1.0999,-1.1043,-1.1037,-1.1081,-1.1088,-1.1102,-1.1131,-1.1118,-1.1145,-1.1143,-1.1171,-1.1171,-1.1215,-1.1222,-1.1225,-1.1225,-1.1227,-1.1227,-1.1239,-1.1235,-1.1222,-1.1221,-1.1221,-1.122,0,-1.1011,-1.1011,-1.1057,-1.1071,-1.1075,-1.1107,-1.1119,-1.1145,-1.1148,-1.1184,-1.1193,-1.1198,-1.123,-1.1232,-1.1269,-1.1269,-1.1324,-1.1318,-1.1317,-1.1317,-1.1352,-1.135,-1.1466,-1.1481,-1.1378,-1.1379,-1.138,0,-1.1062,-1.1091,-1.1107,-1.1125,-1.1135,-1.1164,-1.1181,-1.1177,-1.1196,-1.1218,-1.1242,-1.1272,-1.1297,-1.1349,-1.1357,-1.1386,-1.1381,-1.142,-1.1386,-1.1387,-1.1384,-1.1382,-1.1386,-1.1427,-1.1428,-1.1429,-1.143,0,-1.1152,-1.115,-1.1175,-1.12,-1.1221,-1.1241,-1.1259,-1.1275,-1.1272,-1.1295,-1.1327,-1.1346,-1.1383,-1.1414,-1.1442,-1.1452,-1.1442,-1.144,-1.1451,-1.1454,-1.1453,-1.1455,-1.1337,-1.1438,-1.1437,-1.1437,-1.1436,-1.1436,-1.1217,-1.1243,-1.1258,-1.1287,-1.13,-1.1317,-1.1342,-1.1348,-1.1374,-1.1404,-1.14,-1.1436,-1.1454,-1.149,-1.1502,-1.1531,-1.1518,-1.1532,-1.1536,-1.154,-1.1545,-1.1447,-1.1536,-1.1536,-1.1536,-1.1536,-1.1535,0,-1.1308,-1.1316,-1.1342,-1.1368,-1.1391,-1.1376,-1.1396,-1.1416,-1.1448,-1.1465,-1.1489,-1.1526,-1.1556,-1.1566,-1.1596,-1.1617,-1.1613,-1.1625,-1.1624,-1.1627,-1.1554,-1.1543,-1.1628,-1.1628,-1.1628,-1.1628,-1.1628,-1.1628,-1.1358,-1.1401,-1.1401,-1.145,-1.1459,-1.1493,-1.1506,-1.1522,-1.1536,-1.1578,-1.1602,-1.1608,-1.1622,-1.1653,-1.168,-1.1682,-1.1694,-1.1709,-1.1709,-1.1641,-1.1632,-1.1623,-1.1613,-1.1711,-1.1711,-1.178,-1.1781,-1.1781]},{"header":{"parameterUnit":"m.s-1","parameterCategory":1,"la1":30.2991,"la2":30.254,"lo1":-89.0895,"lo2":-89.0444,"dy":0.0017,"dx":0.0017,"nx":28,"ny":28,"refTime":"2023-09-25T09:00:00:Z","depth":0,"parameterNumber":3,"parameterNumberName":"V-component_of_WINDS"},"data":[0,0,0,0,0,0,0,0,0,0,0,0,0,0,0,0,0,0,0,0,0,0,0,0,0,0,0,0,0,0,0,0,0,0,0,0,0,0,0,0,0,0,0,0,0,0,0,0,0,0,0,0,0,0,0,0,0,0,2.8743,2.8743,0,2.8801,2.8802,2.8803,2.8818,2.8818,2.8818,2.8817,2.8872,2.8874,2.8875,0,0,0,0,0,0,0,0,0,0,0,0,0,2.8638,2.864,2.8743,2.8743,2.8744,2.8801,2.8802,2.8803,2.8818,2.8818,2.8818,2.8817,2.8871,2.8874,2.8876,0,0,0,0,0,0,0,0,0,0,0,0,0,2.8689,2.8641,2.8743,2.8759,2.8761,2.8801,2.8802,2.8803,2.8818,2.8818,2.8817,2.8817,2.8871,2.8873,2.8876,2.8902,0,0,2.8884,2.8885,0,0,0,0,0,0,0,0,2.8686,2.8693,2.8756,2.8758,2.876,2.8802,2.8785,2.8836,2.8819,2.8796,2.8817,2.8817,2.8849,2.8853,2.8865,2.8905,2.8907,2.8884,2.8886,2.8887,2.8888,0,0,0,0,0,0,0,2.8682,2.869,2.8766,2.8757,2.8759,2.8761,2.8768,2.8795,2.8824,2.8798,2.88,2.8807,2.885,2.8863,2.8867,2.8908,2.8884,2.8887,2.8888,2.8889,2.8971,2.8972,0,0,0,0,0,0,2.8677,2.8687,2.8764,2.8768,2.8721,2.8764,2.8771,2.8789,2.8824,2.8829,2.8807,2.8807,2.8858,2.8863,2.8869,2.8901,2.8887,2.8889,2.8891,2.8971,2.8972,2.8972,0,0,0,0,0,0,2.8675,2.8684,2.8762,2.8728,2.8738,2.8766,2.8786,2.8791,2.8803,2.8831,2.8836,2.8815,2.8858,2.8865,2.8894,2.8903,2.8891,2.8893,2.897,2.8971,2.8972,2.8967,0,0,0,0,0,0,2.8671,2.8683,2.8694,2.8728,2.874,2.8788,2.8787,2.8792,2.8809,2.8809,2.884,2.8844,2.8858,2.889,2.8897,2.8907,2.8895,2.8969,2.8971,2.8972,2.8967,2.8968,2.8969,0,0,0,0,0,2.8668,2.869,2.8695,2.8704,2.8755,2.8788,2.8795,2.8812,2.8809,2.882,2.8838,2.8843,2.8902,2.8893,2.8901,2.8912,2.8969,2.897,2.8972,2.8966,2.8967,2.8969,0,0,0,0,0,0,2.8654,2.8694,2.8701,2.8735,2.8758,2.8791,2.8805,2.8813,2.8836,2.8836,2.8855,2.8861,2.8889,2.8903,2.8893,2.8938,2.8935,2.8938,2.8928,2.893,2.8931,2.8926,2.8897,0,0,0,0,0,2.8656,2.8681,2.8714,2.8741,2.8752,2.8777,2.8792,2.8803,2.8828,2.8837,2.8857,2.8879,2.8902,2.8917,2.894,2.8969,2.8975,2.898,2.8981,2.8982,2.8984,2.8999,2.9002,2.8977,2.8977,2.8977,0,0,2.8658,2.8683,2.8698,2.8739,2.8758,2.8782,2.8785,2.881,2.8828,2.884,2.887,2.8885,2.891,2.894,2.8953,2.8952,2.8992,2.8984,2.8984,2.8986,2.9001,2.9003,2.9005,2.8977,2.8977,2.8977,0,0,2.8675,2.8697,2.8721,2.8741,2.8772,2.8788,2.8793,2.8825,2.8836,2.8866,2.8876,2.8896,2.8936,2.8954,2.8968,2.8991,2.8996,2.8998,2.9003,2.9018,2.902,2.9022,2.9029,2.9032,2.9,2.9,2.9,0,2.8673,2.8712,2.8732,2.8758,2.8774,2.8789,2.8812,2.883,2.8865,2.8876,2.8875,2.8925,2.8943,2.8976,2.8982,2.8993,2.8999,2.8994,2.9018,2.902,2.9022,2.9029,2.9032,2.9,2.9,2.9,2.9,0,2.8708,2.8735,2.875,2.8786,2.8805,2.8829,2.8851,2.8867,2.8877,2.8893,2.8922,2.8945,2.8972,2.8981,2.899,2.9015,2.9013,2.9015,2.9012,2.9024,2.9031,2.9034,2.9,2.9,2.9,2.9,0,0,2.8718,2.8765,2.877,2.8786,2.8821,2.884,2.8864,2.8893,2.8906,2.893,2.8949,2.8983,2.8985,2.9001,2.9012,2.9025,2.9041,2.9025,2.9026,2.9026,2.9068,2.9066,2.9069,2.9045,2.9046,2.9046,2.9066,0,2.8738,2.8784,2.8802,2.8838,2.8862,2.8876,2.8897,2.8919,2.8934,2.8955,2.8971,2.8994,2.8996,2.9005,2.9019,2.9036,2.9049,2.9035,2.9062,2.9062,2.9054,2.9073,2.9071,2.9089,2.9069,2.9069,2.907,0,2.8767,2.8793,2.8832,2.8863,2.8874,2.8893,2.892,2.894,2.8965,2.8975,2.8994,2.9004,2.9028,2.9024,2.9056,2.9046,2.9058,2.9068,2.9069,2.9071,2.9066,2.9075,2.9095,2.9097,2.9074,2.9074,2.9074,0,2.8769,2.8813,2.8842,2.8856,2.8893,2.8906,2.8921,2.8946,2.8962,2.8985,2.8995,2.9021,2.9034,2.9053,2.9069,2.9065,2.9099,2.9097,2.9107,2.9106,2.9113,2.9112,2.9134,2.9122,2.9122,2.9122,2.9122,0,2.8789,2.8812,2.8844,2.8861,2.8887,2.8907,2.8932,2.8948,2.897,2.899,2.9003,2.902,2.9042,2.9062,2.9075,2.9099,2.9105,2.9112,2.9115,2.9111,2.911,2.9118,2.9117,2.9123,2.9123,2.9122,2.9122,0,2.8795,2.8817,2.885,2.8883,2.8892,2.8909,2.8936,2.8953,2.8969,2.8994,2.9001,2.9025,2.9049,2.9068,2.9099,2.9108,2.9133,2.9137,2.9125,2.9127,2.9135,2.9134,2.9163,2.9167,2.9153,2.9153,2.9153,0,2.8806,2.8824,2.886,2.8875,2.8891,2.8915,2.8931,2.8952,2.8968,2.8998,2.9011,2.9036,2.9058,2.9096,2.9115,2.9139,2.9143,2.9151,2.9146,2.9141,2.9142,2.914,2.9141,2.9151,2.9151,2.9151,2.9152,0,2.8823,2.8833,2.8857,2.8885,2.8905,2.8928,2.895,2.8961,2.8986,2.9003,2.9029,2.9046,2.9079,2.9103,2.9129,2.9143,2.9151,2.9153,2.9157,2.9152,2.9144,2.9147,2.9126,2.9152,2.9152,2.9152,2.9152,2.9152,2.8831,2.8847,2.8875,2.8901,2.8921,2.8942,2.8959,2.8978,2.9001,2.903,2.904,2.9066,2.909,2.9126,2.914,2.916,2.916,2.9165,2.9166,2.9167,2.9166,2.9142,2.9165,2.9165,2.9165,2.9165,2.9165,0,2.8847,2.8866,2.889,2.8922,2.8943,2.895,2.8975,2.8991,2.9015,2.9037,2.9059,2.9088,2.9112,2.9134,2.9158,2.917,2.9174,2.9176,2.9174,2.9177,2.9165,2.916,2.9172,2.9172,2.9172,2.9172,2.9172,2.9172,2.8858,2.8886,2.89,2.8937,2.8955,2.8983,2.8996,2.9015,2.9033,2.9066,2.9086,2.9101,2.9123,2.9149,2.9171,2.9177,2.9185,2.9185,2.9191,2.9179,2.9178,2.9177,2.9172,2.9187,2.9187,2.9202,2.9202,2.9202]}]]